RH
31 42 49 63 71 78 87 88 95 94 93 99 97 99 96 88 89 87 91 89 81 82 77 70 66 63 69 70 70 78 80 76 76 74 78 90 82 78 84 76 69 73 77 79 82 84 86 87 90 91 88 85 82 79 73 69 78 83 80 79 80 81 83 84 85 87 89 91 89 85 83 83 82 80 81 85 91 97 97 93 87 76 70 71 74 73 70 71 71 69 71 77 77 77 82 80 81
32 47 57 72 77 85 94 87 95 100 97 99 96 99 96 89 91 84 85 85 73 69 66 61 61 65 68 69 65 67 80 86 84 84 90 94 87 86 84 74 70 72 76 78 80 80 82 86 89 89 84 81 80 76 66 67 80 81 79 80 81 82 83 83 84 87 89 89 87 84 83 82 81 82 83 86 89 91 95 98 97 88 77 74 77 75 71 70 70 70 70 74 76 75 77 76 78
34 54 66 79 81 86 93 89 97 101 98 97 96 97 93 93 91 80 77 78 68 55 56 56 60 66 66 73 70 72 86 84 85 91 93 89 89 95 86 74 69 69 72 77 79 77 78 82 84 83 79 80 79 70 63 72 81 80 79 80 80 82 82 82 85 87 87 86 87 86 85 85 82 86 88 88 90 88 91 98 99 95 91 83 75 73 73 73 73 74 77 79 79 78 78 80 77
41 60 70 80 87 90 93 97 99 98 100 96 93 95 93 91 84 77 74 72 65 51 52 56 62 64 65 79 74 77 87 80 82 87 90 85 85 95 85 75 71 69 73 76 76 76 79 77 76 76 76 79 75 65 68 79 81 80 81 81 81 82 83 85 88 87 85 86 88 88 86 86 84 88 89 88 90 88 90 93 94 96 99 94 81 71 71 76 77 82 85 85 83 81 80 81 78
59 69 74 80 91 96 95 99 98 97 100 95 94 95 92 89 83 82 76 69 61 52 52 55 63 63 64 72 68 80 87 79 81 79 85 84 84 90 83 77 71 72 76 75 76 79 79 76 76 77 79 77 70 69 77 82 81 84 83 82 84 83 85 87 90 88 84 86 89 87 84 85 84 87 87 89 90 90 91 89 90 94 96 97 93 81 76 77 76 84 88 86 84 84 83 78 77
72 76 77 80 89 93 95 98 98 99 96 93 97 96 91 88 87 86 75 60 54 52 51 55 61 63 69 67 64 76 77 77 81 77 82 87 88 86 81 77 72 79 81 78 79 78 77 79 79 78 76 72 72 78 81 80 79 85 84 84 86 84 88 88 88 86 82 84 87 84 82 84 87 89 89 89 89 90 91 88 90 95 95 94 96 90 86 83 79 86 88 85 83 82 84 77 76
73 80 84 86 90 91 98 101 98 100 93 88 95 95 91 88 88 86 74 56 53 54 51 56 56 65 75 66 68 70 65 72 75 77 82 87 89 86 83 78 80 88 83 80 79 74 77 80 79 75 71 72 79 81 80 80 82 84 83 83 84 84 89 87 84 83 81 81 83 82 84 88 89 90 90 88 87 89 90 90 92 94 94 92 93 92 91 91 88 91 88 82 78 80 86 83 81
70 86 92 92 96 95 99 100 97 99 92 87 91 92 89 90 89 87 82 62 53 54 53 55 53 72 78 66 78 71 62 69 71 78 82 85 88 87 84 81 90 95 83 78 77 75 81 80 76 73 72 79 82 79 79 82 84 83 81 79 79 84 87 87 88 85 82 83 84 85 88 91 88 87 89 88 87 88 89 90 91 90 92 92 91 92 92 93 92 92 86 77 76 83 88 85 82
71 84 91 92 97 98 97 99 97 95 90 89 91 90 88 90 89 87 87 69 52 54 56 54 56 77 80 72 82 70 64 71 74 80 80 84 86 84 85 86 90 89 80 77 79 81 83 79 73 73 76 80 80 80 81 82 84 81 78 75 75 86 90 89 92 88 88 90 88 89 91 92 89 86 85 86 88 89 91 91 89 87 89 90 89 91 92 91 91 88 81 75 78 86 87 83 79
76 84 91 93 96 99 98 98 97 95 91 91 91 89 89 89 88 86 90 74 53 58 60 56 63 75 78 78 82 70 68 72 75 79 78 82 82 81 86 86 80 76 78 81 82 80 79 78 76 77 77 79 80 82 82 82 82 77 75 76 79 89 95 92 90 90 92 93 90 88 90 91 89 86 85 88 91 90 91 90 87 87 89 91 90 90 91 88 84 78 76 78 82 85 85 81 77
83 91 92 95 98 99 98 97 96 97 92 93 94 89 90 88 85 85 88 75 56 63 64 62 72 74 76 80 80 70 67 71 74 76 77 78 78 81 85 86 78 70 77 81 79 76 80 82 82 82 78 79 81 82 83 80 78 76 78 82 87 91 95 93 90 92 90 89 88 85 86 89 90 88 87 89 91 89 88 88 88 88 90 92 90 89 90 85 76 73 77 81 82 83 82 79 74
87 98 94 96 100 98 97 97 95 97 93 93 95 91 90 85 84 84 81 70 60 65 62 64 71 71 81 85 79 69 66 69 71 73 75 76 77 81 84 86 78 70 73 74 74 77 84 87 85 83 78 79 81 84 82 78 79 82 83 85 89 91 92 92 92 92 88 89 88 87 88 86 87 87 88 90 91 89 87 87 87 88 89 92 91 89 89 81 70 73 81 81 81 85 84 81 74
86 98 96 96 98 98 96 96 94 95 96 94 93 92 90 86 86 87 81 66 59 65 61 61 63 68 84 84 74 67 66 66 67 71 73 75 77 80 84 83 74 68 70 71 76 80 85 89 88 85 79 79 84 85 80 80 85 86 87 85 85 88 90 92 92 90 88 90 89 90 90 85 86 87 88 90 90 90 88 87 87 86 87 89 90 91 86 73 66 73 81 80 81 84 85 86 79
82 95 97 95 96 99 96 96 95 95 98 95 92 91 90 90 86 84 83 71 62 64 59 55 57 70 84 85 80 70 65 65 66 69 70 74 77 80 82 77 70 67 70 73 78 81 85 89 90 90 85 83 87 86 83 88 89 86 89 89 86 88 90 93 92 90 90 91 89 88 89 87 87 86 88 88 86 89 91 89 88 88 88 88 89 91 83 68 66 73 80 81 81 79 77 81 81
78 95 97 98 99 98 96 95 94 95 98 94 90 90 90 89 86 83 82 71 62 56 51 52 54 68 81 86 86 69 63 66 65 67 69 74 78 79 77 73 71 70 73 75 79 82 84 87 90 92 87 86 87 86 89 91 87 84 88 89 88 89 89 93 94 91 89 84 81 83 86 88 85 85 89 87 84 88 91 90 89 90 90 90 89 91 82 68 69 74 79 82 81 77 71 74 80
82 95 96 100 98 95 94 93 93 94 97 93 88 89 89 86 85 86 81 69 56 47 50 56 52 59 69 73 72 62 62 65 63 66 69 74 77 77 75 74 75 75 77 80 84 85 84 87 90 88 85 86 84 85 90 91 88 86 89 88 87 88 87 89 91 90 85 78 76 80 85 88 87 87 89 88 85 86 88 90 91 91 91 90 90 91 79 67 70 73 75 79 81 80 74 72 77
85 88 92 98 98 95 93 93 95 94 95 94 90 89 89 87 86 80 78 72 55 46 52 54 50 53 59 60 60 59 62 62 61 66 69 73 76 78 80 79 80 82 86 88 90 90 88 88 87 84 84 85 84 85 89 94 92 90 94 91 88 89 87 89 91 90 89 85 82 82 80 81 86 87 88 88 87 85 86 88 90 89 89 88 88 85 73 68 72 72 73 75 77 80 79 75 73
80 84 89 94 97 95 91 90 89 88 92 94 91 88 87 85 86 78 76 74 55 49 52 49 50 51 54 57 58 59 60 60 62 67 70 73 77 80 82 83 84 88 92 94 95 94 88 84 83 83 87 88 88 88 91 97 94 91 94 90 90 93 92 93 94 94 92 88 83 79 74 72 77 83 86 87 86 86 86 85 87 86 86 86 84 78 72 71 71 69 71 72 71 75 77 75 75
77 87 90 93 94 90 85 85 84 85 89 93 90 88 86 81 84 82 78 72 56 52 53 49 54 56 56 58 57 58 58 59 62 65 69 72 75 77 80 83 85 88 92 94 96 94 84 81 83 84 91 93 92 92 94 96 91 89 90 88 92 96 96 95 95 95 89 82 79 76 73 68 70 80 87 87 86 87 84 83 84 84 83 81 80 76 73 72 70 68 69 69 70 73 74 72 74
76 86 92 92 87 85 84 84 85 83 85 90 90 89 89 84 85 82 75 68 56 53 52 53 62 63 60 57 56 57 57 59 61 64 67 69 71 74 79 81 83 85 89 90 92 91 83 84 87 89 94 95 94 94 93 92 89 89 89 90 96 95 92 91 92 92 86 79 77 76 74 69 69 79 90 91 91 92 87 85 87 87 86 81 77 75 73 71 69 69 69 69 72 75 75 73 74
70 80 89 85 77 83 85 83 84 81 82 87 87 89 89 84 82 78 70 64 61 59 50 51 62 62 59 57 55 55 57 59 60 62 63 64 68 72 75 78 80 83 85 88 90 88 84 88 93 93 95 95 95 94 91 90 90 90 90 91 94 91 87 88 91 91 87 82 78 77 76 74 72 77 85 90 94 92 86 85 87 86 84 77 72 69 68 68 67 68 69 72 74 74 74 74 75
69 79 77 70 70 82 83 80 82 81 81 85 85 85 84 81 79 77 70 62 68 66 47 46 56 56 56 55 54 55 57 59 59 60 60 62 66 70 73 75 79 82 84 88 89 85 85 93 97 95 97 97 94 92 91 90 90 90 89 89 88 86 85 88 91 92 90 87 82 79 79 79 76 73 74 77 81 79 75 75 75 73 72 68 65 63 62 64 65 67 70 72 71 70 69 71 74
71 81 68 61 65 75 79 76 80 81 82 85 84 82 83 81 79 79 74 72 79 66 41 43 51 51 53 53 53 55 56 57 57 57 59 63 67 69 72 75 79 82 84 88 90 87 87 95 99 97 97 97 95 93 93 92 92 89 87 87 84 82 83 85 88 90 90 87 86 84 82 79 75 72 70 66 64 63 66 70 70 71 72 70 67 64 64 65 67 68 69 69 66 64 64 66 69
65 78 68 65 67 69 73 73 78 81 81 86 82 80 83 79 77 75 71 76 80 58 38 41 47 48 50 51 53 54 55 56 55 55 59 64 67 69 72 74 78 81 84 89 92 91 90 92 96 97 94 94 93 93 94 94 95 91 88 87 83 82 82 82 83 85 86 84 85 86 82 77 73 72 69 63 58 59 66 71 73 75 76 76 75 74 73 72 71 71 70 68 66 64 63 63 64
63 73 66 65 72 72 70 72 79 81 82 86 83 85 87 79 76 76 74 74 63 44 37 40 43 47 48 50 52 53 53 54 53 54 59 64 66 69 71 74 77 80 84 88 92 94 92 88 90 93 90 87 87 91 95 94 94 92 89 87 84 84 84 82 81 82 84 82 83 84 79 74 72 71 67 63 61 63 67 70 73 74 76 78 77 76 75 74 72 71 71 69 66 65 64 63 63
60 63 61 66 80 83 79 79 81 82 84 83 84 91 90 80 75 80 87 74 50 39 39 39 42 45 46 49 50 51 52 51 51 53 58 63 66 68 71 75 78 80 83 87 91 94 92 86 83 83 81 79 81 92 95 89 91 92 89 88 85 84 84 84 82 81 82 80 79 80 78 74 70 68 65 65 66 67 70 71 73 73 74 76 74 73 72 71 71 71 70 68 64 63 62 61 62
55 58 65 75 85 89 87 87 87 85 82 78 84 93 90 84 78 82 87 68 47 42 41 40 43 45 45 47 47 48 48 46 47 52 57 61 64 67 72 76 79 80 83 87 90 92 91 83 76 73 72 73 79 88 90 85 89 93 91 89 84 82 83 84 82 78 76 76 77 78 78 76 71 68 68 71 74 75 76 75 75 77 76 74 73 72 71 71 72 71 69 66 63 61 60 58 60
53 63 77 81 82 86 85 88 91 88 82 77 82 86 85 84 79 77 75 63 53 47 42 42 44 45 44 45 46 46 45 44 45 49 55 59 62 67 73 76 78 81 83 85 86 87 83 75 71 69 67 71 75 80 82 83 89 92 90 87 85 83 82 81 79 75 72 71 74 75 76 77 74 70 72 79 83 83 82 80 78 81 81 76 72 71 73 73 73 73 70 65 63 61 59 58 58
55 66 84 86 83 86 85 86 89 89 87 80 77 81 83 83 82 80 70 58 56 49 43 44 43 44 45 44 46 46 44 43 43 46 51 55 59 65 72 75 77 81 81 78 78 77 73 69 70 71 70 71 72 76 79 81 86 90 88 85 84 83 80 78 76 75 73 70 71 74 75 77 76 71 73 80 85 86 85 81 79 81 82 77 71 71 73 74 74 74 71 66 63 62 60 59 58
60 67 81 89 92 90 85 87 87 87 89 82 81 90 93 86 84 88 75 54 52 50 44 44 44 44 45 44 44 45 44 42 42 45 47 50 57 63 67 72 73 77 78 74 72 70 68 69 71 72 73 71 70 75 78 79 83 85 85 83 81 81 81 77 74 74 76 73 70 74 75 76 77 73 75 81 84 85 82 77 76 77 78 75 71 71 73 73 73 72 70 68 66 64 63 60 59
65 72 79 87 96 95 86 86 86 86 87 83 84 91 94 86 80 87 82 59 47 48 46 44 44 44 44 44 44 44 42 40 41 43 45 48 55 59 62 69 70 71 73 70 68 67 67 70 71 71 72 70 70 73 76 77 79 80 81 81 78 78 81 76 71 72 76 76 72 72 75 76 78 75 75 79 81 81 77 73 74 74 75 73 71 72 72 71 71 71 68 67 65 63 61 58 57
65 75 89 87 88 92 86 82 83 84 85 83 84 88 91 83 77 84 86 74 54 45 46 43 42 44 43 44 42 42 40 38 39 41 43 47 52 55 59 65 68 68 68 67 65 66 69 70 69 71 72 70 69 72 77 76 76 77 78 78 76 76 79 78 73 73 75 75 73 72 75 78 78 76 76 78 79 78 75 74 74 75 75 72 70 70 71 71 71 71 68 66 63 61 58 55 55
61 65 88 87 82 92 90 84 82 82 84 85 86 90 92 83 79 83 84 83 65 44 44 43 42 43 42 43 40 39 40 36 38 40 41 45 51 53 56 61 65 66 65 65 67 68 70 70 69 71 71 70 71 74 76 75 74 75 75 75 75 74 78 79 75 75 74 73 74 73 75 78 77 77 77 78 78 77 77 77 77 76 75 71 70 70 70 71 69 67 67 65 64 61 58 54 54
58 56 74 79 78 90 94 91 86 83 85 87 87 86 87 80 81 86 81 85 73 46 41 40 40 42 40 40 38 36 39 37 38 39 39 45 50 51 54 59 62 64 65 67 69 70 69 69 70 70 70 72 74 76 73 72 73 73 74 74 75 75 77 79 75 73 73 73 74 75 76 77 77 77 78 79 79 79 79 79 78 77 77 76 74 72 70 69 67 65 64 64 63 61 58 56 57
53 52 65 77 81 87 90 89 85 85 87 86 88 85 83 80 82 87 82 83 79 62 56 46 36 39 38 37 37 36 36 37 38 37 38 45 49 51 54 59 62 63 66 68 70 72 69 69 70 68 70 73 75 76 73 70 71 72 74 75 75 78 79 80 77 73 73 75 76 76 77 78 77 77 79 82 82 81 81 79 80 79 80 80 77 75 73 70 68 65 64 64 62 61 60 59 59
39 44 60 78 85 84 80 82 82 82 88 88 85 84 85 82 83 90 87 81 79 76 76 59 38 35 37 36 35 35 36 37 35 34 39 45 47 51 56 58 60 61 62 65 68 70 69 69 70 69 70 73 75 77 74 71 71 72 74 75 74 78 80 81 82 78 75 75 77 78 79 79 77 78 79 81 80 81 81 79 81 82 80 80 77 74 73 72 69 66 65 64 62 61 61 61 60
25 37 60 73 75 75 72 81 82 74 86 92 83 83 89 83 80 91 90 80 79 80 81 71 47 35 35 36 35 35 37 36 33 32 37 43 46 51 55 56 57 59 59 61 64 66 67 68 69 70 71 73 74 74 72 71 72 73 75 73 73 77 79 80 83 82 78 74 74 77 80 80 77 76 76 76 77 80 81 80 82 83 81 79 73 69 69 71 71 70 68 66 64 62 62 62 60
20 30 55 65 66 70 69 79 81 72 84 94 84 85 93 86 84 94 92 84 83 82 84 83 67 49 41 36 34 37 39 34 31 33 37 42 48 50 52 54 55 58 59 59 62 64 66 67 68 69 68 69 72 72 71 70 71 71 70 69 71 77 78 78 79 81 80 77 73 71 75 79 77 75 73 73 76 81 83 83 83 82 80 77 70 66 68 71 73 73 70 69 67 63 62 62 59
18 25 48 60 62 73 79 79 79 76 86 95 88 89 97 92 90 96 95 92 91 86 88 93 88 77 63 47 38 36 38 37 31 33 39 43 47 49 50 53 55 57 59 59 61 64 66 67 67 66 64 65 69 73 73 72 71 70 69 68 70 74 77 79 79 79 81 79 75 71 69 72 77 76 73 75 79 83 83 83 83 82 80 77 71 70 73 73 75 74 71 71 68 63 62 62 60
13 23 47 58 60 75 87 87 85 82 85 89 87 92 98 96 95 97 93 94 95 91 92 97 96 92 83 72 64 49 36 35 32 31 38 42 45 48 49 53 56 56 58 60 61 64 67 67 67 66 65 64 65 70 72 71 70 70 69 68 69 72 77 82 83 82 83 80 77 77 71 68 74 79 79 80 81 83 83 82 83 83 80 77 73 74 77 75 74 71 69 70 67 65 63 61 61
11 17 39 54 58 67 78 85 85 83 86 84 84 96 99 95 97 97 92 92 94 93 93 93 93 93 87 82 81 69 46 32 30 33 38 42 44 48 50 52 55 57 57 59 61 64 67 67 67 67 66 65 66 66 68 69 68 67 68 69 73 76 79 84 85 84 85 83 78 76 74 69 71 78 83 86 84 83 82 82 83 82 81 79 74 74 77 76 72 68 69 70 67 64 62 61 62
12 13 30 47 56 66 76 79 79 89 96 82 78 94 97 92 95 97 95 94 94 94 92 89 88 89 89 85 79 76 60 34 27 34 39 42 45 48 51 53 54 56 57 57 59 62 66 67 67 68 67 67 68 66 67 70 69 68 68 70 76 80 81 82 83 84 84 82 77 73 72 69 68 72 78 83 86 85 83 82 84 82 80 80 78 76 77 75 70 68 70 68 65 64 62 61 60
14 13 26 43 55 69 76 72 76 91 92 75 71 85 92 90 93 96 95 93 93 94 92 88 87 87 89 89 80 74 67 42 28 35 40 40 47 50 51 53 54 55 55 56 59 61 64 67 66 67 67 68 68 66 66 69 69 68 68 68 71 74 76 77 78 81 79 75 75 76 74 71 70 71 73 77 83 85 85 84 84 81 79 79 77 74 73 72 69 69 70 67 67 67 63 60 58
18 18 29 48 59 68 70 64 70 75 72 74 71 73 89 95 92 93 92 90 93 95 93 90 89 88 86 87 81 73 71 55 33 34 41 42 46 51 51 52 53 53 54 55 59 61 62 65 66 66 66 65 66 65 65 66 67 67 67 67 68 69 69 68 71 76 74 71 74 78 77 74 74 74 75 77 80 84 86 86 85 80 77 76 73 68 68 71 72 72 71 69 71 68 62 59 58
22 26 33 47 56 60 57 53 59 61 70 90 80 66 89 101 95 94 91 91 94 93 94 92 89 88 85 84 82 75 75 70 48 35 39 43 46 49 49 50 51 51 52 54 57 59 61 63 65 66 63 61 65 66 64 64 64 64 65 67 67 68 66 63 66 71 73 75 77 78 76 75 78 80 82 82 80 82 86 85 83 77 72 71 68 65 66 72 75 74 70 69 70 67 62 61 59
20 24 30 41 46 48 51 52 59 65 77 91 78 65 87 101 97 97 97 95 94 92 94 93 89 87 85 83 83 78 76 78 66 44 36 41 46 47 48 49 51 51 50 52 56 57 60 63 65 66 62 60 65 66 63 62 63 62 62 64 64 65 65 63 64 69 75 79 79 80 76 74 81 83 84 85 81 83 86 84 80 72 69 70 67 65 69 74 75 73 70 67 65 64 61 61 60
17 20 26 34 38 45 59 60 59 72 82 80 67 60 76 93 95 95 95 88 84 90 96 95 90 87 86 85 83 80 76 77 77 57 37 39 45 46 48 48 49 52 50 52 56 57 60 63 64 64 61 61 64 64 62 61 61 62 61 62 61 62 64 65 65 68 75 79 79 80 77 75 80 82 84 85 83 83 83 82 79 72 70 73 72 71 72 74 75 73 70 66 63 63 61 59 59
17 19 24 34 41 45 58 59 54 67 74 65 58 55 67 87 90 86 86 78 74 84 92 94 92 88 86 87 84 81 79 80 81 67 42 37 45 46 48 50 49 51 53 54 56 58 60 63 64 64 62 64 64 62 62 61 60 62 64 64 63 63 66 67 68 68 71 75 76 77 77 77 80 82 83 84 83 83 79 78 80 76 71 73 75 75 71 71 75 75 72 67 64 64 62 59 57
19 19 23 40 50 47 54 61 57 59 60 53 52 59 77 91 86 78 76 72 72 79 85 89 90 87 86 87 85 83 84 83 83 74 50 38 44 47 47 50 51 52 53 56 58 59 61 63 65 65 64 65 64 62 63 63 60 61 65 67 66 66 68 68 68 67 67 71 73 74 76 77 80 82 83 82 82 82 77 74 76 76 74 73 75 75 70 70 74 76 74 68 65 66 65 63 60
21 22 27 41 48 47 55 58 51 55 62 56 51 65 87 93 85 82 79 73 76 82 86 89 89 88 88 87 86 88 90 87 85 81 62 43 41 45 47 49 51 53 54 56 59 61 61 63 66 66 66 66 64 64 65 64 61 60 63 67 66 65 67 67 66 66 65 67 70 72 73 74 76 78 79 78 79 80 75 71 71 75 76 75 74 74 72 72 74 76 75 69 67 68 67 66 63
22 24 28 35 38 41 47 44 44 59 70 66 61 75 92 94 90 92 88 82 83 87 88 90 92 93 92 91 90 92 95 92 89 88 78 62 48 41 44 49 50 52 53 57 60 62 62 64 66 67 67 68 66 65 67 66 62 61 63 66 66 64 65 65 65 65 64 65 68 71 72 72 73 73 73 73 75 76 72 70 71 75 77 74 73 74 73 74 75 76 74 70 70 69 67 66 65
22 21 23 29 31 34 37 36 41 57 73 79 81 90 93 89 89 91 89 87 86 87 88 89 92 94 94 94 94 94 96 94 92 91 87 84 72 53 44 46 49 50 53 58 62 63 64 64 65 66 67 69 69 66 67 68 66 63 62 64 66 66 65 63 64 66 65 64 67 70 71 71 70 70 71 72 73 73 71 71 73 76 76 73 72 72 73 74 74 74 72 71 71 70 68 66 63
23 21 24 26 21 20 28 34 38 55 80 88 87 94 95 87 89 90 88 91 90 88 88 88 90 93 94 96 96 96 97 95 94 92 88 89 87 72 56 48 47 48 52 59 62 62 63 64 66 66 66 69 70 68 67 70 71 67 62 62 66 67 65 62 63 66 68 68 70 72 71 70 69 70 72 73 73 72 71 71 72 75 77 73 70 71 72 73 74 73 72 73 73 72 73 71 65
22 19 20 22 18 17 26 35 45 69 92 92 86 94 97 92 95 95 90 93 94 90 88 88 90 93 95 95 96 96 95 94 94 93 90 87 86 82 74 62 51 47 50 57 61 61 60 61 63 64 66 69 71 69 69 72 73 70 66 64 64 66 65 61 62 64 67 70 73 74 73 70 70 72 72 73 72 71 72 73 71 74 78 75 71 72 74 75 75 76 76 76 74 74 77 77 72
16 14 16 23 25 27 29 30 47 78 96 95 93 95 94 94 96 95 94 96 94 91 89 89 91 94 96 97 96 94 94 94 94 94 93 91 90 87 82 72 60 55 54 57 62 64 63 61 61 62 62 64 68 69 70 73 74 73 73 68 63 65 65 62 61 64 65 68 70 73 74 73 72 73 73 73 71 70 73 73 71 73 78 77 74 75 77 78 76 77 78 79 76 76 78 79 77
13 16 18 20 21 26 28 26 45 79 93 92 95 96 94 96 95 92 92 90 89 90 88 88 91 93 94 95 95 94 95 95 95 96 96 96 95 90 81 77 73 67 62 61 64 67 67 66 65 66 66 67 72 74 71 72 73 74 77 74 66 65 67 64 63 65 66 67 68 70 73 73 72 72 72 72 71 71 73 72 71 71 75 78 78 77 78 78 78 78 77 76 74 74 76 78 78
15 19 18 17 19 20 20 23 41 69 85 86 91 96 95 93 91 92 90 85 83 87 86 86 90 90 91 94 95 95 94 93 95 97 96 95 96 94 89 84 78 72 68 66 66 69 71 71 71 72 73 72 76 80 78 75 74 74 76 76 71 67 68 68 67 66 67 67 68 68 68 71 72 72 72 70 70 72 71 71 70 70 72 75 77 78 76 77 79 81 79 73 71 74 76 76 76
15 18 16 16 20 19 20 30 43 58 71 75 82 96 99 91 88 91 90 81 76 79 82 85 88 88 88 89 91 94 93 90 91 94 95 95 97 98 96 88 78 72 70 68 69 73 76 75 74 74 73 73 74 79 82 81 79 77 76 76 74 70 69 70 69 68 68 67 68 66 64 66 68 69 71 70 69 70 70 68 70 72 73 73 75 75 75 76 77 78 79 76 73 77 77 74 74
Wind_Speed
10 14 15 14 12 7 3 1 1 1 1 2 1 0 1 1 1 2 2 2 1 3 2 2 4 5 3 4 10 6 7 3 1 3 3 5 25 30 21 23 25 23 22 20 17 16 14 14 13 13 13 14 15 14 14 15 16 15 15 15 14 15 15 15 15 14 14 13 13 12 12 13 13 14 16 16 15 16 19 21 20 16 12 13 13 13 15 16 16 16 17 17 18 18 19 20 20
11 15 15 12 7 3 0 1 2 1 1 2 1 1 1 1 1 3 5 5 2 3 4 4 6 6 6 8 9 7 8 5 2 4 3 17 29 22 21 25 26 25 23 20 17 16 15 15 14 14 15 15 15 14 14 14 15 15 15 14 14 14 14 14 14 14 13 13 13 13 12 12 13 14 15 15 14 14 17 20 22 19 14 12 12 13 15 16 17 18 18 18 17 17 17 18 18
12 15 13 8 3 1 1 1 2 1 1 1 1 1 2 2 3 4 7 6 0 4 8 7 8 5 6 7 4 6 3 4 6 6 7 23 23 16 23 25 26 25 23 21 18 17 16 15 14 15 17 16 15 15 14 14 14 14 14 13 13 13 14 14 14 14 13 13 14 13 12 11 12 13 13 14 14 13 14 17 19 20 19 15 12 12 15 17 18 18 17 17 17 16 16 17 17
13 13 11 5 1 0 1 1 1 1 1 1 1 2 2 3 5 4 6 4 2 3 8 7 5 2 5 9 5 7 6 3 4 5 9 19 20 22 26 25 27 25 23 21 18 18 16 15 15 17 18 16 16 15 13 13 13 13 13 12 13 13 13 14 13 13 14 14 13 13 12 11 11 12 12 13 13 13 13 15 16 19 20 19 16 14 14 16 18 17 16 16 17 16 16 17 18
13 10 8 3 0 1 0 1 1 1 1 1 1 1 2 1 2 4 4 2 4 6 7 5 5 3 6 7 2 4 6 6 5 8 13 18 25 29 27 27 27 24 23 21 19 18 16 16 16 17 17 17 16 14 13 12 13 12 12 12 12 12 12 13 13 13 14 14 13 13 12 11 11 12 12 12 12 13 13 14 15 16 18 20 19 17 14 14 17 17 16 16 19 17 16 17 19
12 8 6 3 0 0 0 0 1 1 1 1 0 2 3 2 2 6 5 1 5 7 10 8 8 9 7 6 5 5 7 8 8 11 18 23 29 30 28 28 26 24 23 21 20 18 18 17 17 17 17 17 15 13 12 12 12 12 11 12 12 12 12 13 13 13 13 14 13 13 13 12 12 12 11 12 12 12 13 14 15 15 16 18 19 19 16 15 16 16 16 17 19 18 16 17 18
11 5 2 1 1 0 1 0 2 1 1 1 1 0 0 2 3 4 3 5 7 8 12 10 10 11 8 5 6 8 11 11 11 15 23 28 30 30 28 27 25 23 22 22 21 20 20 18 18 18 17 16 14 13 12 12 12 11 11 11 11 12 12 13 14 14 14 14 14 14 13 12 12 12 12 12 12 13 13 14 15 16 15 16 18 18 18 17 16 16 17 19 19 18 18 18 17
9 3 1 1 1 1 1 1 2 1 0 2 2 0 1 1 1 1 2 3 7 8 11 10 10 13 9 6 5 9 15 13 16 23 29 30 30 29 27 26 25 23 22 23 22 21 19 18 19 17 16 15 13 12 11 11 11 11 11 10 11 11 12 13 15 15 15 15 14 14 13 12 12 12 12 12 13 13 13 13 15 16 15 15 17 17 18 18 18 18 19 20 20 19 18 18 18
5 2 1 2 1 0 0 2 1 2 1 4 3 0 1 1 1 1 2 3 6 9 11 9 7 13 10 9 9 8 15 19 25 29 29 29 29 27 25 25 25 23 23 24 23 22 20 19 18 16 15 14 13 12 11 11 10 10 10 9 10 11 12 14 15 15 15 15 15 15 14 13 13 13 13 13 13 13 13 13 14 15 15 16 16 16 17 18 18 20 21 21 20 19 18 18 18
2 1 1 1 1 0 0 2 1 1 2 5 3 1 0 1 1 3 4 2 9 10 11 9 8 14 13 11 8 7 16 25 29 28 27 28 27 25 24 24 24 24 24 24 24 23 21 19 17 16 15 13 12 11 10 11 10 10 9 9 11 12 13 14 15 15 15 15 15 16 15 14 14 14 14 13 13 13 13 13 14 15 15 15 16 15 17 18 20 22 22 21 20 19 18 17 18
0 1 0 1 1 1 1 1 2 1 3 4 3 2 1 1 2 3 3 2 11 13 12 10 11 15 14 9 5 11 23 27 28 28 27 27 25 24 24 24 23 24 25 26 25 24 21 18 16 15 14 13 12 11 11 10 10 10 10 11 13 14 14 14 15 15 16 15 15 16 15 14 14 14 14 13 12 13 13 14 14 14 15 15 15 16 17 19 21 23 22 22 20 18 18 17 17
1 1 1 1 1 2 1 1 2 1 4 5 4 1 2 1 4 3 2 5 14 15 10 7 10 12 12 7 5 16 25 24 26 28 27 26 25 24 24 24 23 24 26 27 26 23 20 17 15 14 14 13 12 11 10 10 10 10 11 13 14 16 15 15 15 16 16 16 15 15 15 15 15 14 14 13 12 13 14 14 14 14 15 15 16 16 16 19 22 23 23 22 19 18 18 17 17
1 2 1 1 2 2 2 2 2 3 3 4 4 3 0 2 3 1 2 6 13 12 7 8 11 10 9 7 7 14 19 22 26 27 28 26 23 24 24 24 24 25 27 26 25 22 20 17 15 14 13 12 12 11 10 10 11 11 12 14 16 17 16 16 16 16 16 15 15 15 15 15 15 14 13 13 12 13 14 14 15 15 16 16 16 16 16 21 23 23 22 21 19 18 18 18 18
3 2 2 1 1 2 2 2 4 4 3 3 3 3 3 1 2 2 2 4 8 9 10 12 13 11 9 8 8 8 14 23 26 27 27 24 23 24 24 25 25 26 26 24 23 21 19 18 16 14 13 13 12 10 11 12 12 13 13 15 17 17 17 16 16 17 16 15 14 14 15 15 15 13 13 12 12 14 14 16 16 16 17 16 16 16 18 22 23 23 22 20 19 18 19 19 19
5 1 2 0 1 2 1 2 5 5 5 5 5 4 5 1 1 1 3 3 7 10 13 11 9 9 8 9 8 10 18 28 27 27 27 24 24 23 24 26 25 25 23 22 21 20 19 18 17 15 15 14 12 12 12 13 12 13 14 15 16 16 17 16 16 16 16 15 15 15 14 14 14 13 12 12 13 14 15 17 17 17 17 16 16 16 18 22 23 23 21 19 18 18 18 18 18
4 2 2 1 2 2 1 1 5 5 5 6 5 4 6 2 1 0 4 2 8 12 12 10 6 6 11 9 12 20 28 30 27 28 28 26 24 23 24 24 23 22 21 20 20 20 19 19 17 16 15 13 12 12 13 12 13 14 15 16 16 16 17 17 16 16 16 16 15 14 14 14 15 14 12 12 13 15 16 17 17 17 16 16 16 16 19 23 22 22 21 19 18 17 17 17 17
2 2 1 1 1 1 0 2 3 5 7 8 5 2 4 2 1 1 3 1 9 12 9 9 6 10 13 12 21 30 32 30 29 29 28 25 23 22 22 22 22 20 18 19 19 19 19 18 17 15 13 12 12 13 14 13 13 14 15 15 16 16 17 17 16 17 17 16 15 14 14 15 15 14 13 12 14 15 16 16 17 17 18 18 17 18 21 22 21 20 20 20 18 16 15 16 17
1 2 1 2 1 0 1 3 3 4 9 10 7 2 3 6 2 2 1 2 9 12 9 11 12 12 15 22 30 32 31 30 29 29 26 23 21 20 20 21 21 19 19 18 18 18 19 18 16 15 13 13 13 15 16 14 14 15 15 16 16 16 16 17 17 17 17 16 16 15 15 15 15 15 14 13 14 16 17 17 17 18 19 19 19 20 22 21 20 20 20 20 18 16 15 15 16
2 2 1 3 2 2 1 3 3 3 9 10 9 5 3 5 4 3 2 4 10 13 12 14 15 15 18 25 29 29 30 29 28 28 25 23 21 20 20 21 20 20 20 19 19 19 18 18 16 15 15 14 15 16 17 15 16 16 16 17 17 16 17 18 18 17 17 17 17 16 15 14 14 15 15 14 14 15 16 17 17 18 19 20 20 20 21 20 19 20 20 20 17 15 15 16 16
1 2 2 4 2 3 1 4 3 4 11 11 9 6 1 3 5 3 5 9 12 13 13 16 17 18 19 20 24 27 28 26 26 26 25 24 22 21 21 21 21 21 21 20 21 19 18 18 16 15 15 15 16 16 16 16 17 16 18 19 18 17 17 19 19 18 18 18 17 16 14 13 12 13 15 15 14 15 16 17 17 17 18 19 20 20 20 19 19 20 20 19 16 15 15 16 16
1 3 2 3 2 3 2 4 5 7 10 9 9 9 5 5 3 4 9 11 10 9 12 18 21 21 20 18 22 24 24 23 24 24 24 24 22 21 21 22 22 22 21 20 20 19 19 19 17 16 15 15 15 15 16 16 17 17 18 19 18 18 19 20 19 18 18 18 17 16 15 13 12 12 13 16 16 15 16 17 17 18 18 19 21 21 21 21 21 21 20 18 15 14 14 15 15
2 2 3 2 3 3 3 5 6 8 9 9 8 9 7 3 2 3 8 11 6 4 12 20 21 21 20 19 20 21 21 20 21 22 21 22 23 21 20 21 21 22 21 20 19 19 20 19 18 17 16 15 14 15 16 16 17 17 18 19 18 19 20 19 18 18 17 17 17 17 16 15 13 12 12 15 16 16 17 18 19 20 20 20 21 21 21 21 21 20 18 16 15 15 15 15 14
2 2 3 1 4 3 5 6 7 7 10 10 7 6 4 5 5 1 4 6 3 4 15 21 20 23 24 21 19 17 17 17 20 21 20 22 23 21 21 21 21 22 22 20 19 19 20 20 19 18 17 16 15 15 15 16 16 16 17 17 18 19 19 17 16 17 17 17 17 17 17 16 15 13 12 13 15 17 19 20 20 20 19 19 19 18 18 18 17 16 15 13 12 13 14 14 14
3 2 3 1 3 5 7 7 6 7 9 8 6 6 4 7 7 3 3 2 4 8 18 21 23 26 25 20 17 16 17 18 21 21 21 23 24 23 23 22 22 22 22 21 20 19 19 19 20 19 18 17 16 15 15 16 16 16 16 16 16 17 16 16 16 17 18 18 18 17 18 18 17 16 15 14 15 17 18 18 17 17 17 17 16 15 14 13 12 11 10 9 9 9 10 11 12
2 3 3 3 5 3 6 7 7 6 7 6 7 7 4 6 6 4 1 3 5 16 20 20 22 23 20 18 17 16 17 20 22 21 21 23 23 24 22 21 22 22 22 22 21 19 18 19 21 20 18 17 16 16 16 16 16 16 16 16 16 15 15 16 17 17 17 18 18 18 18 19 19 18 18 16 15 15 14 13 13 14 15 14 13 13 12 11 10 9 8 7 7 8 8 9 10
2 4 5 7 8 6 2 3 7 7 5 7 10 7 4 7 6 4 6 5 11 19 19 19 20 19 18 17 18 16 15 19 22 23 23 24 24 24 22 22 22 22 22 22 21 20 18 19 20 19 18 16 16 16 16 16 15 15 16 16 16 16 16 16 16 16 16 16 18 19 19 19 19 20 19 18 15 13 12 11 11 12 12 12 12 12 11 10 9 8 7 7 8 9 9 9 10
6 8 11 11 10 7 5 3 2 4 4 7 10 8 4 3 3 2 6 3 13 18 17 18 17 17 17 16 16 17 16 18 23 23 23 23 24 24 23 23 23 22 22 22 21 21 20 20 19 17 16 16 16 16 15 15 15 14 15 16 16 16 16 17 17 16 16 16 17 18 19 19 19 19 19 17 15 12 11 11 11 10 10 10 10 11 11 10 9 7 6 7 8 9 9 10 11
13 13 14 11 9 6 2 1 1 1 2 5 9 10 5 1 3 6 6 6 11 16 17 16 15 14 14 16 14 13 14 18 22 23 22 22 22 23 24 25 24 23 23 23 22 21 21 20 18 16 15 15 14 15 15 14 14 14 14 15 15 16 16 17 18 17 17 17 17 18 19 18 18 19 18 16 14 12 10 11 11 10 9 8 9 10 11 10 9 7 6 7 8 9 10 11 11
11 11 10 8 7 5 1 2 1 3 2 2 6 9 4 2 6 6 5 9 10 13 17 15 14 12 11 14 11 9 13 19 19 20 23 23 24 25 26 26 26 25 24 22 21 21 21 20 18 16 15 14 13 14 14 13 13 13 13 15 15 15 16 17 18 18 18 18 18 19 19 18 18 19 18 16 14 12 10 10 12 11 10 9 9 10 11 10 8 7 7 8 9 9 10 11 12
8 7 7 6 5 3 1 2 1 3 1 2 3 5 3 1 4 2 3 11 12 12 16 14 12 11 10 12 10 8 13 16 16 21 24 23 26 27 26 27 28 27 24 22 21 21 21 20 18 17 16 14 13 13 13 12 12 13 13 13 14 15 15 16 17 18 18 19 19 19 19 19 18 18 17 16 14 12 11 11 12 12 11 10 11 11 11 10 8 7 7 8 10 10 9 12 13
6 5 3 4 2 1 2 2 4 6 3 3 3 4 5 3 2 2 3 10 14 14 15 14 12 11 10 10 10 8 11 15 18 24 25 24 28 28 26 27 28 27 26 24 22 21 20 19 18 17 16 15 14 13 12 11 11 11 11 12 13 14 15 15 18 20 19 19 20 20 19 18 17 17 17 16 14 13 11 11 12 12 12 11 11 12 11 10 8 7 6 6 8 8 9 12 13
3 5 2 2 3 1 1 3 5 5 4 4 1 3 4 2 3 2 4 3 10 14 15 15 13 12 11 10 10 8 10 14 20 25 24 26 28 27 28 28 28 28 28 26 23 22 20 18 17 17 16 16 15 14 13 12 11 10 10 11 13 15 16 16 19 21 20 20 20 21 19 17 17 17 17 16 14 12 11 11 12 12 11 11 12 12 11 10 8 6 5 5 5 6 8 11 11
2 2 4 4 4 3 1 3 5 4 4 4 2 2 2 2 4 3 3 2 7 14 15 16 15 14 13 10 9 9 9 10 15 22 25 27 29 29 29 29 30 30 28 27 25 23 21 18 17 16 17 17 16 16 15 12 11 11 11 12 14 17 18 17 19 21 20 20 21 20 19 17 17 17 15 15 14 12 11 11 11 11 11 10 11 11 10 9 7 6 6 5 5 6 8 11 9
4 2 5 6 7 6 4 4 5 5 6 4 3 3 3 4 6 4 2 0 7 12 14 16 15 13 13 10 10 10 8 8 11 19 25 28 29 30 30 31 31 30 29 29 27 25 22 19 17 17 18 18 17 17 15 12 12 12 12 14 16 17 17 17 19 21 21 21 20 20 18 17 16 16 14 14 13 12 11 11 10 10 9 9 10 10 9 8 7 6 6 6 6 7 9 10 9
5 5 4 4 6 7 7 6 7 9 8 7 6 5 5 7 6 4 3 2 5 6 7 13 15 14 13 10 9 10 8 9 12 19 26 30 29 29 30 32 32 30 29 29 28 26 24 21 19 18 19 18 18 17 15 13 13 12 13 15 16 15 15 17 19 21 21 20 19 19 17 16 16 15 15 14 13 12 11 11 10 9 9 8 9 9 9 7 7 7 6 6 6 6 8 8 8
3 6 7 8 7 5 6 4 7 12 8 7 7 6 7 9 7 4 3 4 6 3 3 7 14 14 12 9 9 10 9 9 15 22 28 30 30 29 31 32 31 30 30 30 30 28 26 23 21 19 19 18 19 19 17 15 14 13 13 14 14 13 14 16 18 20 20 19 19 18 16 15 15 15 15 15 14 13 12 12 11 10 10 9 9 10 9 7 7 7 5 5 5 6 7 8 7
5 4 7 10 8 5 3 3 6 10 6 4 5 5 7 10 10 5 3 5 5 4 5 5 10 12 11 10 10 11 8 10 16 22 27 30 30 31 31 31 29 29 30 31 31 30 28 25 22 21 19 19 20 20 18 18 18 16 15 14 13 13 13 15 17 17 17 17 17 17 17 15 15 14 14 14 15 13 12 12 12 11 11 10 10 10 10 8 7 6 5 4 5 6 6 7 6
7 3 6 7 6 3 3 5 6 4 2 2 3 6 5 7 9 3 2 6 4 4 6 5 5 7 8 11 13 10 7 10 14 16 24 29 29 31 31 29 29 29 31 32 32 31 30 27 25 24 21 21 21 20 19 19 19 17 15 14 13 13 13 14 15 15 15 16 15 16 17 16 15 14 14 14 14 13 12 12 12 11 11 10 10 11 10 9 8 7 6 5 5 6 6 7 7
6 3 5 5 6 6 5 6 7 2 1 2 3 6 4 3 5 2 3 1 3 3 5 4 4 4 4 9 11 10 9 10 11 12 20 26 28 30 29 28 30 31 32 32 32 32 30 29 28 26 23 22 21 20 20 20 18 16 14 12 12 13 13 12 10 10 12 14 14 14 16 17 16 14 14 15 14 13 12 13 12 11 10 10 10 11 11 10 10 8 7 6 6 6 6 7 8
4 4 5 5 10 9 1 3 6 2 2 5 5 5 3 2 3 3 4 4 2 3 4 4 4 4 2 3 4 7 11 12 11 10 16 22 27 28 28 28 29 31 30 31 33 32 30 31 29 28 26 24 23 20 19 19 17 16 14 12 12 12 12 10 8 8 9 11 13 13 14 16 16 15 14 14 14 13 12 13 12 11 10 9 11 12 12 11 10 9 8 7 6 6 6 7 8
5 5 6 6 11 9 6 8 6 3 3 5 7 4 1 4 5 4 1 2 1 3 3 3 4 2 1 1 1 2 9 13 11 10 14 18 23 26 28 29 29 29 29 30 33 32 31 32 30 29 28 26 25 23 20 17 16 16 15 14 14 13 13 12 11 11 10 10 11 13 13 14 16 16 13 13 13 13 13 13 12 11 10 10 11 12 12 11 10 9 8 7 6 6 6 6 6
5 5 10 13 13 10 13 15 9 4 1 5 6 3 1 3 5 5 1 2 2 2 1 1 1 1 2 1 1 2 3 10 11 11 14 17 20 25 28 29 29 28 29 31 33 32 32 32 31 29 29 28 26 25 22 17 16 17 17 17 16 15 15 15 15 15 13 12 11 12 13 13 14 15 14 13 13 13 13 14 13 12 11 11 12 12 10 10 9 8 7 6 5 4 4 5 5
5 5 11 15 17 15 17 17 9 3 2 5 5 2 1 2 3 5 2 2 2 0 1 3 2 1 3 1 0 2 1 6 9 11 15 18 20 24 25 28 30 29 30 31 32 32 32 32 31 29 29 29 28 27 25 20 18 19 18 18 18 17 17 16 17 16 14 13 12 12 13 12 13 14 13 13 14 13 13 13 13 13 12 12 12 12 11 10 9 7 5 4 3 2 4 6 6
5 5 12 18 19 19 19 15 7 3 3 3 5 2 3 1 2 6 6 3 2 2 4 5 3 4 5 2 1 1 1 2 7 11 14 17 21 24 25 27 30 31 31 31 30 31 32 32 31 29 28 28 28 27 25 22 20 21 21 19 18 17 16 16 16 16 14 13 13 13 13 13 12 12 11 12 13 13 13 12 12 13 14 13 11 12 12 10 8 7 5 4 3 1 2 5 6
6 4 16 19 18 19 17 11 5 4 4 3 6 3 3 0 2 7 7 5 6 7 7 7 6 6 7 4 2 2 1 0 4 10 14 18 22 26 28 29 30 31 32 31 31 31 32 32 31 29 27 28 29 27 25 23 21 22 22 20 19 17 15 14 15 16 15 14 14 14 14 14 13 12 11 11 12 13 14 12 11 12 13 12 11 12 12 10 8 7 7 5 5 3 2 3 4
4 8 13 13 13 11 9 7 5 5 4 3 8 5 3 0 1 6 7 6 8 9 7 8 8 8 8 5 4 3 0 2 2 7 16 21 25 28 30 30 29 31 32 31 31 31 31 31 31 30 27 28 29 27 25 24 21 22 23 21 20 18 16 15 15 16 16 15 14 14 14 14 14 13 12 12 11 12 14 12 11 12 12 11 11 12 12 9 8 8 8 7 7 5 3 3 3
5 7 8 9 10 5 3 3 4 5 0 5 10 8 4 2 3 6 6 5 8 8 6 8 9 9 8 6 4 2 1 2 2 4 15 23 26 29 31 30 29 30 31 30 30 31 31 30 31 30 28 28 28 27 26 25 22 22 23 22 20 19 18 17 17 18 17 16 16 15 14 14 15 14 13 13 12 12 13 13 12 12 12 12 11 12 12 9 7 8 8 8 8 7 5 5 4
4 5 5 7 5 2 3 3 4 3 4 5 11 9 3 2 3 6 6 3 6 9 8 10 11 11 9 6 4 3 1 2 2 2 11 18 21 25 27 28 29 29 29 29 30 31 31 30 30 30 28 28 28 27 26 26 24 23 22 22 21 19 19 19 19 19 19 18 17 16 15 15 15 14 13 14 14 12 13 14 13 12 12 12 12 12 11 9 8 9 9 9 9 8 7 7 7
5 5 5 5 2 1 3 1 1 3 5 5 13 9 2 0 2 2 6 4 3 5 6 9 11 11 11 8 5 3 2 2 3 1 8 12 14 20 24 26 28 29 29 29 29 31 31 30 30 30 29 29 28 27 26 27 27 25 23 22 22 20 20 19 19 19 20 20 19 18 17 16 17 16 15 15 15 13 13 14 14 13 13 13 12 11 10 10 11 11 10 10 10 9 8 8 8
3 5 5 5 4 3 3 4 3 2 2 1 8 8 2 2 2 5 1 2 4 4 3 3 5 6 8 6 4 3 3 3 4 4 3 9 14 20 23 26 28 28 30 31 30 31 32 31 31 30 29 29 29 27 27 27 28 27 25 23 22 22 21 20 19 19 20 21 21 20 18 17 18 18 17 16 14 13 13 13 13 13 13 13 12 11 10 11 13 11 11 12 12 11 10 10 9
2 4 5 5 4 4 4 4 3 2 2 3 4 4 1 2 2 7 5 7 9 8 7 5 4 4 3 3 4 4 4 5 6 7 6 2 10 19 22 25 28 29 30 31 31 32 32 32 32 31 30 30 30 29 28 28 28 27 26 24 22 21 21 22 20 19 20 22 22 21 19 19 18 18 18 16 14 13 13 13 13 13 12 12 11 11 11 12 12 12 12 13 12 12 12 12 11
2 2 5 4 3 3 3 3 4 6 4 3 4 2 1 2 4 6 4 7 9 8 7 4 2 4 4 3 3 4 5 5 6 6 6 11 5 11 19 22 26 28 30 31 31 33 33 33 33 33 31 30 30 30 29 28 28 27 27 27 23 20 21 23 22 20 21 22 23 22 21 20 19 18 17 15 14 14 13 13 14 13 12 12 12 12 12 12 13 13 13 13 12 11 12 12 12
1 1 3 4 4 3 3 2 5 7 5 2 2 3 2 3 3 6 4 7 8 7 7 5 3 4 6 5 4 5 6 6 5 5 1 7 10 1 10 16 22 26 27 30 33 35 35 34 34 34 32 31 31 31 30 29 28 27 27 28 24 20 21 23 23 22 21 22 22 22 22 21 19 18 18 16 15 15 14 13 15 15 13 13 13 13 13 12 13 13 13 13 12 11 10 10 11
4 1 3 3 1 2 3 3 4 4 4 2 1 3 4 3 1 1 2 8 8 7 8 8 6 5 7 7 6 6 7 7 5 4 4 3 5 5 9 12 17 21 23 29 35 37 37 37 36 35 33 32 31 31 30 30 29 28 28 28 26 22 21 22 23 22 22 22 22 21 21 22 21 20 19 18 17 17 16 16 17 17 15 15 16 15 14 14 14 13 13 13 13 11 11 11 11
5 3 1 2 2 0 1 2 3 3 3 2 1 2 1 1 1 3 4 7 9 8 8 7 7 7 7 8 9 8 8 6 5 4 2 1 3 5 9 14 16 17 17 23 30 33 35 36 36 36 35 35 34 32 31 30 29 29 28 28 27 24 22 22 22 21 21 22 22 22 21 22 21 21 20 20 20 19 19 19 20 19 18 17 17 17 16 16 16 15 15 15 15 14 13 12 12
3 2 3 2 3 3 1 1 4 4 4 5 1 2 1 1 1 3 5 7 10 8 7 8 8 8 7 7 9 9 8 6 4 4 4 5 5 4 6 9 14 16 15 18 24 25 28 32 33 32 31 30 30 29 30 30 29 28 27 26 27 25 24 23 22 22 22 22 22 22 22 22 21 21 21 21 21 20 20 21 21 20 19 19 18 18 17 17 17 16 16 16 16 15 15 14 13
2 3 2 1 1 0 1 1 2 5 4 4 4 1 2 2 0 2 2 5 9 8 6 7 8 8 8 6 7 8 7 7 5 5 6 7 7 6 7 10 12 15 16 17 21 23 23 26 27 28 27 27 27 26 27 28 28 27 26 25 26 26 25 24 24 23 23 23 22 22 23 22 21 21 21 22 22 21 21 21 21 20 20 20 18 17 17 17 18 17 16 15 15 14 15 15 14
4 3 2 3 2 0 1 2 2 3 4 4 5 4 1 1 3 3 1 3 9 9 7 7 7 7 8 7 8 8 7 7 7 7 7 7 9 11 12 12 11 12 15 16 19 21 23 24 26 28 29 30 30 28 26 26 26 27 27 26 25 26 25 25 25 25 24 24 23 23 22 23 23 22 22 22 23 23 22 22 22 22 20 20 19 18 16 17 18 18 16 15 15 14 14 15 15
Wind_Direction
158 150 143 141 138 127 106 210 71 344 100 60 344 76 258 282 68 129 137 140 150 214 196 147 147 159 151 120 142 103 40 124 174 144 178 155 147 152 158 165 163 159 158 155 155 149 148 151 148 144 140 136 133 130 128 123 117 113 110 111 112 112 110 109 110 110 112 114 115 114 111 111 109 109 109 110 111 113 118 122 123 119 113 112 112 114 114 113 113 113 111 107 107 109 109 109 111
164 146 142 137 136 130 93 233 88 8 83 66 258 247 176 126 97 164 183 189 180 125 126 139 138 148 137 120 130 97 39 16 53 111 101 134 139 147 159 164 163 161 159 156 156 152 153 154 154 152 147 142 137 134 129 121 116 110 110 112 113 113 113 112 112 112 112 112 112 112 112 111 109 108 108 109 110 111 114 117 120 121 120 117 114 111 110 112 114 115 113 110 110 112 110 110 114
165 144 141 133 130 219 315 305 95 68 62 91 226 234 141 148 196 194 204 205 148 115 135 134 116 116 125 112 92 88 69 23 85 101 112 137 139 152 162 164 163 163 161 157 158 157 157 159 159 154 149 145 140 138 130 120 115 111 113 114 115 114 113 114 113 114 115 114 113 113 114 111 109 107 108 109 109 108 108 111 116 121 125 126 124 119 114 115 118 116 112 112 113 112 108 109 115
158 141 140 140 115 170 20 30 95 74 91 195 228 202 171 186 208 207 216 222 302 154 141 127 95 32 99 107 95 82 98 84 88 105 130 150 151 156 160 161 162 162 162 161 161 159 159 160 157 151 148 145 142 138 128 120 115 113 117 117 118 117 117 117 115 116 116 116 116 116 114 112 112 110 110 109 109 110 110 113 118 121 125 128 126 122 119 119 120 117 117 118 117 114 108 108 113
151 147 159 188 31 91 93 97 119 121 167 202 235 228 102 66 270 268 257 220 195 160 128 118 98 71 85 97 113 98 115 114 98 114 131 151 152 153 158 159 162 162 163 163 160 158 158 156 151 149 147 145 141 136 128 122 120 120 122 122 121 120 119 118 118 116 115 116 116 117 115 115 115 111 110 110 111 113 114 115 118 119 120 123 124 125 124 122 119 118 122 123 121 118 112 111 113
156 162 187 244 276 218 67 74 207 179 213 171 18 0 70 102 263 283 305 79 147 128 104 94 106 105 85 67 61 97 130 124 118 127 134 146 150 152 156 159 160 160 162 161 158 158 156 153 149 148 147 144 140 135 130 126 127 126 126 124 121 119 117 118 120 118 116 118 118 118 117 116 115 113 113 114 115 113 114 115 118 118 118 120 123 127 129 124 119 120 124 123 123 119 112 110 111
161 155 185 262 185 280 75 57 261 253 275 115 112 24 177 151 190 267 340 89 102 96 97 97 119 108 81 83 75 94 114 121 129 138 140 144 148 152 156 156 156 158 162 160 157 157 153 151 149 150 148 144 140 137 132 131 131 129 128 125 120 117 117 120 121 121 120 120 120 120 118 117 117 117 116 116 115 113 114 115 119 119 118 120 123 128 130 127 124 127 128 126 123 117 111 108 111
166 152 179 135 115 357 85 262 251 205 194 100 99 118 294 138 212 265 27 101 107 103 105 110 119 95 72 82 85 100 107 119 132 136 140 142 148 152 153 152 154 159 161 158 156 154 151 151 152 152 148 143 140 138 135 135 132 128 126 122 120 117 120 125 124 123 122 122 122 121 120 120 120 119 118 117 115 114 114 115 117 119 120 122 124 128 129 129 130 131 131 130 125 119 115 111 113
181 204 229 118 105 353 156 286 270 201 174 106 111 57 341 109 296 57 25 334 111 111 108 119 114 97 94 88 90 100 105 122 130 133 139 143 149 150 150 155 158 159 159 157 155 153 151 154 155 152 147 143 142 139 138 135 131 128 121 120 126 126 127 128 126 125 124 125 124 124 123 120 120 120 119 117 115 114 115 117 118 121 124 125 125 128 130 129 130 132 132 131 127 122 118 115 117
195 216 242 99 124 328 240 274 272 265 104 109 128 162 18 105 18 53 14 346 116 102 97 103 94 104 110 97 93 111 120 130 131 134 141 144 149 148 152 159 162 161 160 159 157 155 154 156 155 150 146 144 144 142 140 133 129 127 122 127 133 136 133 128 127 126 126 126 127 127 124 120 119 119 117 116 115 115 115 117 121 123 126 127 128 130 131 130 130 133 132 131 128 122 119 119 122
103 312 133 93 100 269 224 197 240 292 99 112 103 101 239 203 98 49 353 109 108 103 110 100 95 107 105 95 92 121 130 136 136 139 145 147 148 149 154 160 165 162 161 160 158 156 154 154 153 150 149 147 147 145 140 132 131 129 131 136 135 137 134 129 128 128 127 126 127 127 123 120 119 119 117 117 117 117 116 117 121 124 126 128 129 132 134 133 134 133 131 131 127 117 116 122 126
95 263 135 117 152 209 233 251 233 169 115 120 127 174 247 165 85 28 323 130 114 117 132 114 117 117 101 100 116 130 136 140 141 143 147 148 147 151 156 160 163 161 161 159 156 155 152 153 153 152 152 149 148 146 140 134 135 134 138 140 137 139 135 132 129 128 129 126 126 125 123 121 120 119 117 117 117 117 116 118 122 125 128 130 130 132 135 137 136 133 130 131 125 113 114 118 125
151 205 126 138 173 181 241 248 198 148 121 118 155 198 267 62 93 32 313 134 125 125 129 122 133 120 102 114 130 138 144 147 145 145 148 147 147 152 155 159 160 159 159 157 156 155 153 152 154 154 153 150 148 145 139 138 139 139 140 138 137 139 136 133 129 127 127 126 127 126 126 122 120 119 117 118 118 117 116 118 123 126 129 131 132 132 135 139 138 134 132 131 125 117 118 118 122
188 196 131 148 190 194 222 195 165 148 123 123 175 163 88 4 149 167 246 137 121 126 120 124 130 108 109 133 138 152 151 150 146 143 147 146 148 150 151 154 156 157 157 159 159 156 154 155 156 156 155 153 147 143 142 143 142 140 139 136 135 136 135 133 130 127 127 129 130 130 128 123 121 119 117 118 116 116 116 119 123 126 129 131 133 134 137 140 139 137 134 131 125 122 123 123 125
183 172 114 124 272 217 234 187 165 150 117 140 192 139 105 278 227 167 239 130 110 130 119 126 138 114 143 161 151 161 151 151 148 142 143 143 146 147 146 148 152 157 159 162 160 157 158 160 162 162 160 155 149 147 145 144 142 140 137 135 135 137 136 134 132 130 129 131 133 133 130 124 121 118 116 115 112 114 116 120 124 126 128 131 133 136 141 142 140 138 136 132 127 126 127 125 128
164 124 81 55 272 255 302 163 151 135 120 147 186 136 118 205 285 124 243 145 127 141 129 151 177 128 154 160 144 150 149 151 148 141 138 137 140 140 143 147 152 157 162 164 162 163 164 165 167 164 161 156 155 154 147 144 142 139 136 134 134 136 137 136 135 133 131 132 134 135 133 128 123 120 116 110 108 113 117 122 125 127 128 131 133 135 141 142 140 139 140 138 132 129 127 124 129
117 109 40 318 259 292 328 157 150 127 127 143 150 121 119 137 304 269 261 280 138 145 136 147 136 116 139 140 139 145 149 151 144 137 134 135 136 137 142 147 152 158 164 166 165 168 170 170 168 164 162 159 162 159 150 148 142 137 135 133 134 136 137 138 138 135 134 134 136 140 139 133 127 125 121 111 108 111 116 122 126 127 129 132 135 136 139 140 139 142 145 144 137 128 125 125 129
119 117 254 262 224 241 224 151 161 128 127 140 141 172 145 133 191 210 291 4 126 132 125 125 114 114 127 132 139 144 148 149 141 137 136 137 140 141 145 150 156 162 167 168 170 176 175 172 168 164 163 161 163 158 152 152 146 140 137 134 136 140 140 140 140 138 139 139 140 143 142 136 130 126 122 114 109 110 114 119 123 123 125 129 134 137 138 138 139 143 146 145 138 129 129 131 133
148 137 190 258 182 166 208 143 174 143 130 136 141 174 163 135 182 201 139 116 127 129 129 127 119 121 128 136 143 147 149 147 143 142 141 143 147 148 150 154 160 166 170 172 177 183 179 172 170 166 164 163 162 159 156 156 151 146 143 140 142 146 144 143 144 143 142 142 142 142 141 137 131 125 120 115 109 108 112 117 120 120 122 125 130 135 136 137 138 141 143 143 139 134 136 138 139
167 123 182 251 159 134 151 137 162 137 134 139 142 148 131 190 205 192 136 126 133 139 141 136 130 136 141 143 146 149 150 148 146 145 145 148 152 154 154 158 163 169 174 176 181 186 182 174 170 169 167 164 162 161 160 158 156 152 149 148 149 150 148 149 148 146 145 143 143 142 141 138 132 127 123 122 119 115 115 119 123 124 125 127 130 134 135 137 139 141 142 143 142 137 139 143 144
157 130 207 251 138 118 124 126 135 133 134 137 139 135 163 221 198 143 135 127 137 151 149 143 141 145 146 146 148 150 149 147 147 149 151 150 153 157 158 161 164 169 172 176 182 186 183 175 171 173 170 167 166 162 158 156 157 157 155 153 153 151 150 153 151 149 148 146 147 145 143 140 137 136 133 130 128 126 125 127 128 129 131 132 134 135 137 139 140 142 144 146 144 138 140 146 147
117 179 258 259 148 130 136 143 140 133 124 126 141 146 171 205 81 127 136 131 154 172 149 143 142 146 146 147 148 148 147 148 151 154 155 151 152 156 158 160 161 165 170 175 184 188 183 176 174 174 169 171 172 163 157 155 155 156 153 151 152 150 150 153 153 152 152 152 151 148 147 146 143 141 140 134 129 129 128 128 127 127 127 129 133 136 138 140 141 143 145 146 143 139 140 144 147
134 231 274 230 159 144 151 156 142 135 128 133 153 156 148 111 112 172 116 131 220 173 142 140 140 143 144 146 146 146 150 152 156 160 157 151 153 155 157 158 160 163 168 176 184 190 186 179 176 175 173 176 176 165 158 157 156 154 149 147 149 147 150 153 152 153 154 156 154 152 152 149 145 142 143 136 128 127 126 125 125 124 124 125 130 134 137 139 141 142 143 144 141 140 139 142 146
141 173 237 130 118 146 156 150 138 135 132 137 142 137 135 127 134 140 112 209 248 147 139 138 139 143 145 146 147 151 154 157 162 162 155 153 155 157 158 160 162 164 166 173 182 190 192 184 177 177 181 181 179 170 159 157 156 154 150 149 149 148 153 152 150 149 151 157 157 155 154 150 146 143 143 140 133 130 128 128 128 128 128 129 131 134 139 142 142 142 143 145 147 150 151 151 150
114 148 193 104 69 110 149 141 136 131 126 131 121 114 115 113 104 91 84 274 152 137 138 138 140 144 148 148 151 155 158 162 165 163 157 157 158 157 159 162 165 167 167 172 179 188 194 188 183 184 188 185 181 171 161 158 157 157 156 155 156 157 160 155 151 151 152 157 156 155 153 150 148 144 143 142 140 138 135 135 133 132 132 132 133 135 140 142 143 144 145 150 156 164 172 174 168
156 139 126 94 55 34 30 130 139 138 141 138 116 100 95 99 87 58 314 293 132 135 139 140 143 146 150 151 155 159 164 167 166 165 161 160 160 159 161 163 166 171 173 175 180 186 190 190 189 191 192 185 178 172 166 161 157 159 158 159 163 163 164 161 158 156 156 159 156 156 156 153 150 147 145 144 144 144 143 140 133 131 131 133 135 136 138 140 142 143 151 159 162 163 165 171 175
124 104 86 79 66 47 345 325 130 141 155 148 123 110 104 98 99 108 277 241 132 136 141 142 143 146 150 150 157 163 167 169 163 161 159 160 161 161 162 164 168 173 176 179 183 186 186 189 193 195 192 186 179 175 172 164 158 159 158 160 163 164 166 165 165 162 159 160 159 159 159 158 156 153 150 148 147 148 148 145 139 135 134 137 140 142 143 143 146 147 158 170 174 171 163 163 169
125 104 77 65 74 70 329 260 219 250 166 150 123 113 101 35 113 139 189 164 132 140 142 144 146 147 151 150 157 165 166 165 160 157 159 162 163 161 163 166 169 173 179 184 187 187 185 188 192 194 190 186 183 177 175 168 160 159 160 161 162 164 167 168 169 163 159 161 163 162 159 159 159 156 153 153 154 158 161 158 155 153 149 150 153 155 154 152 155 157 167 174 172 172 173 174 174
114 104 87 67 68 56 323 201 242 319 326 114 101 107 103 67 116 128 155 142 138 145 145 146 149 150 150 151 159 163 164 166 162 159 161 163 164 163 165 169 170 173 181 186 189 188 186 189 191 192 190 188 184 177 177 173 164 161 161 162 162 163 166 168 169 164 163 166 165 163 161 160 160 159 158 157 161 170 176 171 166 165 162 163 165 164 161 159 161 165 177 182 177 178 186 190 189
85 90 104 92 59 33 249 258 79 76 303 311 51 109 171 269 118 98 121 147 154 148 148 151 151 153 151 154 164 166 168 169 163 161 163 161 161 163 165 168 170 171 177 183 187 188 187 189 190 190 189 189 185 181 182 177 169 164 160 160 162 165 166 167 169 167 169 171 169 166 163 163 161 162 163 161 166 176 181 176 171 168 165 167 167 163 162 165 169 172 181 190 195 199 205 204 200
96 95 89 102 105 202 180 235 138 128 220 268 45 115 197 236 140 65 76 149 161 152 151 154 153 156 156 161 169 172 173 171 165 164 164 159 158 161 163 164 167 169 172 178 183 186 187 188 188 187 185 185 186 185 184 182 175 166 163 161 160 164 166 164 166 168 169 171 172 170 167 165 163 164 166 166 172 178 178 175 173 168 166 169 167 165 168 174 177 180 185 193 201 203 206 206 203
127 122 76 113 148 209 224 214 178 155 199 222 124 124 185 205 153 87 45 116 157 156 156 158 159 160 162 170 175 178 178 170 166 166 162 158 159 160 160 161 164 167 169 174 177 180 186 187 184 183 180 181 184 182 182 184 177 169 171 166 158 160 163 162 164 167 169 169 170 170 170 168 167 167 168 171 175 176 174 172 172 171 170 169 170 173 176 178 180 183 186 199 210 201 192 191 191
223 148 140 162 161 185 235 182 201 199 168 202 247 159 160 181 165 111 46 51 151 165 164 160 164 163 166 173 176 179 177 167 165 167 161 158 161 160 159 161 164 167 168 170 172 175 181 183 183 181 175 178 181 179 182 184 173 167 169 162 154 154 159 161 164 168 169 169 170 171 171 170 169 169 170 174 175 172 169 168 169 171 168 164 167 173 174 179 184 188 191 195 199 185 170 169 167
206 174 143 170 166 166 171 149 196 203 161 183 220 186 157 163 168 145 177 141 144 171 170 163 165 164 170 171 172 183 173 160 165 165 160 159 162 161 160 163 164 166 166 167 171 172 176 179 181 178 172 174 176 177 181 179 169 164 157 152 151 152 157 160 163 167 169 170 171 172 173 174 174 175 175 176 175 174 172 170 171 170 168 165 169 173 171 179 185 191 197 185 173 167 162 164 168
176 168 131 160 167 176 185 165 174 177 169 180 181 180 155 154 168 159 184 129 113 162 167 161 164 163 171 166 167 182 165 157 164 161 159 160 161 160 160 161 162 164 163 166 171 173 175 177 178 177 175 174 175 179 181 173 168 163 152 150 152 151 155 160 163 165 169 171 173 174 176 177 180 181 179 177 175 178 179 178 182 183 180 177 181 182 178 184 188 189 189 177 170 169 172 174 176
201 164 134 154 172 197 194 157 160 165 164 177 170 167 158 160 179 175 157 114 101 112 89 147 163 163 168 163 166 174 158 160 165 156 156 160 160 158 158 159 161 163 162 165 169 171 174 176 177 180 183 182 181 184 181 172 167 160 156 158 158 154 155 164 167 167 169 172 174 176 177 179 182 182 182 182 178 180 182 182 188 194 194 191 193 194 194 192 185 180 173 170 173 171 179 181 176
248 165 141 162 176 189 172 130 158 158 148 176 165 149 156 162 177 182 137 115 99 95 72 100 158 165 164 158 164 167 154 165 167 155 153 159 159 157 157 158 160 161 161 164 166 168 171 174 177 182 188 188 186 186 182 174 167 161 164 167 164 159 159 166 172 173 172 172 175 179 181 180 182 185 187 186 182 183 184 184 191 196 198 198 195 194 197 193 182 178 170 172 181 175 177 174 164
251 198 152 166 167 136 96 112 135 141 116 162 144 129 148 164 168 171 100 133 120 106 95 78 133 158 161 160 164 161 150 167 170 150 148 157 159 157 157 158 159 158 160 164 165 165 168 171 175 179 184 183 179 182 183 177 170 168 171 170 166 163 163 165 168 173 174 174 177 182 184 183 183 186 187 186 184 185 185 189 196 197 196 195 191 188 189 189 189 188 183 188 192 187 185 177 169
251 207 167 167 130 87 50 95 96 25 6 107 127 128 144 178 143 62 350 133 128 116 111 90 91 94 125 156 164 157 146 166 174 147 146 156 157 156 158 159 161 159 159 163 165 165 167 170 175 178 181 182 177 176 178 177 175 175 179 176 171 167 165 165 164 165 170 175 180 183 186 186 184 182 181 183 185 186 187 190 193 195 194 193 190 185 181 185 194 198 199 204 197 190 196 187 182
242 185 171 172 145 133 137 120 96 27 56 118 138 129 143 211 120 103 330 345 43 81 88 79 73 61 80 142 166 160 153 167 175 150 146 156 157 157 159 161 162 160 159 161 164 165 167 170 175 178 182 186 184 181 179 181 180 180 185 186 181 171 162 165 174 177 176 178 181 184 186 187 185 181 179 185 187 188 190 191 193 196 198 199 196 186 179 184 194 198 201 203 195 194 200 193 193
244 192 174 173 162 156 140 134 129 87 71 140 141 106 167 192 150 160 287 5 12 18 53 58 52 46 330 49 12 159 161 171 171 151 149 156 158 159 160 161 162 162 161 163 166 168 169 172 176 180 183 186 188 188 186 188 189 187 186 182 178 174 167 170 179 182 189 192 186 184 183 187 189 187 188 191 190 191 192 193 198 200 199 201 198 190 183 187 193 195 199 201 194 198 205 205 209
270 216 184 171 157 140 123 131 137 100 73 206 163 94 274 178 145 165 172 118 183 343 13 253 43 357 326 18 21 10 148 176 171 150 151 156 157 159 160 161 162 164 166 168 170 172 173 175 178 181 183 185 187 187 186 191 198 196 189 179 176 176 177 181 183 184 194 201 197 191 186 187 192 194 199 198 193 195 196 197 202 204 201 195 194 196 194 193 194 196 202 206 202 210 224 224 219
275 235 182 158 141 136 138 142 144 135 177 208 193 144 124 156 146 160 162 144 172 51 273 251 240 248 292 323 304 15 88 182 173 150 151 156 157 158 160 162 163 166 168 170 171 173 176 177 178 182 183 185 185 184 185 194 203 203 198 189 184 185 186 189 191 192 197 201 202 201 195 193 194 197 202 200 197 198 199 200 203 204 200 195 196 199 196 191 192 197 204 209 210 233 247 233 221
260 237 153 141 141 149 154 148 140 153 131 145 203 198 105 144 138 138 157 176 214 232 222 236 237 238 254 265 269 233 131 181 177 156 153 158 159 160 162 164 166 168 168 169 171 174 177 179 180 182 184 184 183 181 187 198 204 202 200 195 192 193 193 193 194 197 198 198 200 202 202 201 199 198 198 200 201 201 201 203 205 204 202 202 202 196 190 190 193 199 205 212 223 249 253 223 210
250 190 143 144 151 155 151 139 115 120 106 127 219 208 100 124 123 129 154 179 216 222 206 212 216 222 240 237 229 231 138 316 199 165 159 160 162 163 164 166 168 168 168 170 173 175 178 180 181 183 185 184 183 183 189 199 202 199 197 196 196 198 197 193 193 197 199 200 201 203 203 203 203 202 201 203 203 200 204 207 208 207 205 205 202 193 190 196 208 213 213 216 220 220 197 184 187
216 142 137 136 141 143 132 124 110 100 106 192 212 194 124 187 194 147 163 192 211 213 198 201 206 209 228 227 211 217 91 334 281 171 164 163 165 166 165 166 168 169 170 172 174 176 177 180 181 183 185 184 186 189 192 196 197 195 195 196 197 200 199 195 196 199 202 206 208 207 204 203 204 206 208 211 206 203 208 211 209 206 202 200 198 194 196 206 221 221 221 225 227 226 211 183 178
177 138 135 127 131 126 95 101 95 92 249 216 196 194 149 138 227 184 178 194 194 195 189 188 192 198 215 224 208 186 80 311 316 168 169 164 164 168 165 166 169 169 172 173 175 176 177 180 181 184 186 187 190 194 193 194 193 191 194 197 198 199 197 196 198 202 205 208 210 209 206 205 207 208 213 217 214 210 212 213 212 206 200 197 194 196 201 211 221 218 223 233 234 233 228 219 214
129 126 131 129 129 80 67 39 58 122 251 223 183 189 136 119 237 208 198 215 177 183 191 186 182 184 198 210 195 153 58 299 324 128 170 164 160 166 166 167 169 170 172 173 175 177 178 181 183 185 187 190 194 196 195 196 195 191 192 195 197 198 196 197 200 204 206 207 208 210 209 207 209 211 214 219 218 215 214 214 216 212 204 200 198 199 203 209 214 216 226 233 229 230 230 227 224
86 110 115 121 133 74 114 115 117 191 260 209 170 163 83 343 278 188 190 216 177 165 179 185 180 178 185 191 184 154 72 304 315 65 173 168 159 165 168 168 169 171 173 175 176 178 180 183 185 186 188 191 196 197 196 198 198 196 192 191 194 196 199 202 204 207 208 207 207 209 210 209 210 213 215 218 219 219 217 214 215 213 208 207 205 205 209 213 214 219 231 228 220 227 231 227 226
109 139 133 129 151 161 159 173 180 204 300 114 143 128 69 272 345 19 67 103 73 75 81 145 158 162 175 170 147 124 67 17 346 0 178 175 167 166 168 170 172 174 175 176 177 179 182 184 186 187 189 192 196 197 197 198 201 200 195 193 195 199 203 204 205 209 208 206 206 207 210 210 211 215 217 218 218 221 222 216 213 211 210 212 212 213 218 216 215 225 235 225 219 228 233 228 226
170 165 139 135 163 160 161 182 183 157 135 25 53 95 155 209 37 4 14 65 67 58 46 51 71 81 121 132 123 115 73 52 35 16 353 288 179 172 170 172 175 176 176 176 178 180 182 184 187 188 189 192 196 198 199 199 202 204 199 197 201 207 209 205 204 208 207 204 205 207 211 212 214 217 219 219 217 219 221 216 213 211 211 215 216 219 221 218 221 232 234 226 227 237 237 232 230
264 169 121 141 193 153 145 180 148 127 118 25 24 63 38 84 48 5 21 72 73 79 75 66 82 96 102 97 95 100 86 73 65 51 357 335 313 179 172 175 178 177 176 176 177 180 182 184 187 189 190 193 196 198 200 200 203 205 202 200 205 212 212 206 204 205 205 204 206 210 213 214 214 215 216 219 220 219 216 213 214 217 221 223 221 221 222 223 232 238 232 231 237 241 239 238 237
296 48 156 211 218 142 123 129 120 115 100 61 84 111 106 110 50 356 30 79 75 82 85 69 60 111 124 111 84 82 87 88 81 96 114 324 330 63 150 166 179 180 177 177 179 181 184 185 187 189 191 193 196 198 200 202 203 204 202 202 207 213 213 209 206 204 204 205 208 212 214 214 214 214 214 217 220 218 213 212 218 224 228 227 223 223 225 229 235 234 229 229 235 238 241 246 248
104 86 229 248 315 102 114 104 103 92 83 71 87 122 140 157 143 318 114 107 93 74 66 52 40 89 128 124 110 105 97 100 105 118 158 256 320 28 87 127 164 177 180 182 182 184 186 187 188 189 190 192 196 198 200 202 203 203 202 203 207 212 213 211 209 208 207 207 209 211 213 214 215 215 216 218 218 215 214 217 221 222 224 225 225 225 227 228 226 224 223 224 229 235 241 247 252
123 166 199 81 76 48 2 126 143 103 104 142 18 51 141 222 173 180 170 132 115 96 87 79 58 73 108 114 111 111 101 98 110 114 122 347 9 49 89 111 135 152 168 182 185 185 186 188 189 190 192 194 196 198 200 203 204 204 204 206 207 209 211 212 212 211 211 212 213 213 214 217 217 216 218 217 215 215 219 222 221 220 221 223 227 229 229 227 224 224 225 226 228 232 236 241 246
75 71 20 67 139 159 182 188 153 123 128 155 114 2 288 252 195 186 184 146 126 118 111 104 86 73 81 99 106 105 94 82 82 82 78 71 66 72 82 88 103 114 129 165 181 186 188 189 189 190 192 192 193 196 200 203 206 206 208 210 211 211 211 212 213 214 214 216 217 217 218 220 219 219 218 214 214 216 219 220 219 219 221 223 228 231 230 228 225 226 229 231 232 232 235 238 241
57 50 18 318 323 156 186 292 109 119 136 153 135 111 258 256 49 110 144 125 111 106 97 91 84 73 63 66 85 94 90 79 68 70 81 88 90 87 70 64 82 98 109 138 166 179 187 190 188 187 187 187 190 194 198 202 205 207 210 212 214 215 214 214 215 215 216 219 221 221 221 221 222 223 221 218 217 218 217 217 217 219 222 224 228 230 230 226 223 225 230 232 231 230 233 236 238
134 136 192 205 204 141 91 315 325 106 122 146 146 147 159 26 51 66 63 114 104 102 100 87 72 67 62 55 67 78 83 84 76 69 71 75 79 85 91 96 102 107 110 124 147 163 176 184 186 186 186 188 190 192 194 200 204 207 210 213 216 218 218 218 218 218 219 221 225 226 223 222 224 225 224 222 220 219 219 217 216 218 221 224 227 230 230 226 224 227 229 230 228 227 231 236 238